| time (UTC) | temp F | wind direction | speed knots | gust knots | rain 1hr in | rain 24hr in | rain mn in | humidity % | barometer mb |
| 20260503072736 | 55 | 155 | 0.0 | 0.0 | 0.00 | 0.00 | 0.00 | 54 | 1021.6 |
| 20260503072253 | 55 | 155 | 0.0 | 0.0 | 0.00 | 0.00 | 0.00 | 56 | 1021.6 |
| 20260503071747 | 55 | 155 | 0.0 | 0.0 | 0.00 | 0.00 | 0.00 | 56 | 1021.6 |
| 20260503071247 | 56 | 155 | 0.0 | 0.0 | 0.00 | 0.00 | 0.00 | 59 | 1021.8 |
| 20260503070746 | 56 | 155 | 0.0 | 0.0 | 0.00 | 0.00 | 0.00 | 55 | 1021.8 |
| 20260503070242 | 55 | 155 | 0.0 | 0.0 | 0.00 | 0.00 | 0.00 | 55 | 1021.8 |
| 20260503060242 | 52 | 110 | 0.0 | 0.0 | 0.00 | 0.00 | 0.00 | 63 | 1021.8 |
| 20260503054738 | 51 | 113 | 0.0 | 0.0 | 0.00 | 0.00 | 0.00 | 66 | 1020.8 |
| 20260503054235 | 50 | 113 | 0.0 | 0.0 | 0.00 | 0.00 | 0.00 | 65 | 1020.8 |
| 20260503053751 | 50 | 113 | 0.0 | 0.0 | 0.00 | 0.00 | 0.00 | 64 | 1020.8 |
| 20260503053231 | 50 | 112 | 0.0 | 0.0 | 0.00 | 0.00 | 0.00 | 65 | 1020.8 |
| 20260503052750 | 50 | 112 | 0.0 | 0.0 | 0.00 | 0.00 | 0.00 | 64 | 1020.7 |
| 20260503052247 | 50 | 113 | 0.0 | 0.0 | 0.00 | 0.00 | 0.00 | 64 | 1020.7 |
| 20260503051747 | 50 | 113 | 0.0 | 0.0 | 0.00 | 0.00 | 0.00 | 63 | 1020.7 |
| 20260503051248 | 50 | 113 | 0.0 | 0.0 | 0.00 | 0.00 | 0.00 | 64 | 1021.6 |
| 20260503050749 | 50 | 113 | 0.0 | 0.0 | 0.00 | 0.00 | 0.00 | 64 | 1021.6 |
| 20260503050230 | 50 | 99 | 0.0 | 0.0 | 0.00 | 0.00 | 0.00 | 64 | 1021.6 |
| 20260503045731 | 49 | 105 | 0.0 | 0.0 | 0.00 | 0.00 | 0.00 | 64 | 1021.5 |
| 20260503045232 | 49 | 110 | 0.0 | 0.0 | 0.00 | 0.00 | 0.00 | 64 | 1021.5 |
| 20260503044733 | 50 | 110 | 0.0 | 0.0 | 0.00 | 0.00 | 0.00 | 64 | 1021.5 |
| 20260503044234 | 50 | 110 | 0.0 | 0.0 | 0.00 | 0.00 | 0.00 | 63 | 1021.5 |
| 20260503043735 | 50 | 101 | 0.0 | 0.0 | 0.00 | 0.00 | 0.00 | 64 | 1021.5 |
| 20260503043236 | 50 | 108 | 0.0 | 0.0 | 0.00 | 0.00 | 0.00 | 63 | 1021.5 |
| 20260503042738 | 49 | 114 | 0.0 | 0.0 | 0.00 | 0.00 | 0.00 | 61 | 1021.4 |
| 20260503042238 | 50 | 113 | 0.0 | 0.0 | 0.00 | 0.00 | 0.00 | 63 | 1021.4 |
| 20260503041737 | 50 | 114 | 0.0 | 0.0 | 0.00 | 0.00 | 0.00 | 64 | 1021.4 |
| 20260503041233 | 50 | 107 | 0.0 | 0.0 | 0.00 | 0.00 | 0.00 | 64 | 1021.2 |
| 20260503040749 | 50 | 108 | 0.0 | 0.0 | 0.00 | 0.00 | 0.00 | 64 | 1021.2 |
| 20260503040245 | 50 | 107 | 0.0 | 0.0 | 0.00 | 0.00 | 0.00 | 63 | 1021.2 |
| 20260503035746 | 50 | 107 | 0.0 | 0.0 | 0.00 | 0.00 | 0.00 | 62 | 1021.4 |
| 20260503035245 | 50 | 107 | 0.0 | 0.0 | 0.00 | 0.00 | 0.00 | 62 | 1021.4 |
| 20260503034741 | 49 | 107 | 0.0 | 0.0 | 0.00 | 0.00 | 0.00 | 63 | 1021.4 |
| 20260503034237 | 49 | 107 | 0.0 | 0.0 | 0.00 | 0.00 | 0.00 | 62 | 1021.5 |
| 20260503033737 | 50 | 108 | 0.0 | 0.0 | 0.00 | 0.00 | 0.00 | 62 | 1021.5 |
| 20260503033237 | 50 | 106 | 0.0 | 0.0 | 0.00 | 0.00 | 0.00 | 62 | 1021.5 |
| 20260503032737 | 49 | 105 | 0.0 | 0.0 | 0.00 | 0.00 | 0.00 | 62 | 1021.7 |
| 20260503032236 | 49 | 105 | 0.0 | 0.0 | 0.00 | 0.00 | 0.00 | 63 | 1021.7 |
| 20260503031736 | 49 | 106 | 0.0 | 0.0 | 0.00 | 0.00 | 0.00 | 62 | 1021.7 |
| 20260503031251 | 49 | 105 | 0.0 | 0.0 | 0.00 | 0.00 | 0.00 | 62 | 1021.7 |
| 20260503030747 | 49 | 108 | 0.0 | 0.0 | 0.00 | 0.00 | 0.00 | 62 | 1021.7 |
| 20260503030239 | 49 | 110 | 0.0 | 0.0 | 0.00 | 0.00 | 0.00 | 63 | 1021.7 |
| 20260503025736 | 49 | 107 | 0.0 | 0.0 | 0.00 | 0.00 | 0.00 | 63 | 1021.8 |
| 20260503025236 | 50 | 98 | 0.0 | 0.0 | 0.00 | 0.00 | 0.00 | 60 | 1021.8 |
| 20260503024735 | 51 | 293 | 0.0 | 0.0 | 0.00 | 0.00 | 0.00 | 59 | 1021.8 |
| 20260503024234 | 50 | 293 | 0.0 | 0.0 | 0.00 | 0.00 | 0.00 | 59 | 1021.8 |
| 20260503023749 | 50 | 293 | 0.0 | 0.0 | 0.00 | 0.00 | 0.00 | 59 | 1021.8 |
| 20260503023244 | 50 | 293 | 0.0 | 0.0 | 0.00 | 0.00 | 0.00 | 60 | 1021.8 |
| 20260503022743 | 50 | 293 | 0.0 | 0.0 | 0.00 | 0.00 | 0.00 | 61 | 1021.9 |
| 20260503022240 | 50 | 293 | 0.0 | 0.0 | 0.00 | 0.00 | 0.00 | 61 | 1021.9 |
| 20260503021740 | 49 | 293 | 0.0 | 0.0 | 0.00 | 0.00 | 0.00 | 61 | 1021.9 |
| 20260503021239 | 49 | 293 | 0.0 | 0.0 | 0.00 | 0.00 | 0.00 | 62 | 1022.0 |
| 20260503020735 | 49 | 293 | 0.0 | 0.0 | 0.00 | 0.00 | 0.00 | 62 | 1022.0 |
| 20260503020234 | 49 | 293 | 0.0 | 0.0 | 0.00 | 0.00 | 0.00 | 63 | 1022.0 |
| 20260503015731 | 49 | 293 | 0.0 | 0.0 | 0.00 | 0.00 | 0.00 | 63 | 1022.1 |
| 20260503015250 | 49 | 293 | 0.0 | 0.0 | 0.00 | 0.00 | 0.00 | 62 | 1022.1 |
| 20260503014747 | 50 | 293 | 0.0 | 0.0 | 0.00 | 0.00 | 0.00 | 62 | 1022.1 |
| 20260503014245 | 49 | 293 | 0.0 | 0.0 | 0.00 | 0.00 | 0.00 | 63 | 1022.3 |
| 20260503013741 | 49 | 293 | 0.0 | 0.0 | 0.00 | 0.00 | 0.00 | 63 | 1022.3 |
| 20260503013237 | 49 | 293 | 0.0 | 0.0 | 0.00 | 0.00 | 0.00 | 64 | 1022.3 |
| 20260503012753 | 49 | 293 | 0.0 | 0.0 | 0.00 | 0.00 | 0.00 | 63 | 1022.4 |
| 20260503012249 | 50 | 293 | 0.0 | 0.0 | 0.00 | 0.00 | 0.00 | 62 | 1022.4 |
| 20260503011745 | 50 | 293 | 0.0 | 0.0 | 0.00 | 0.00 | 0.00 | 62 | 1022.4 |
| 20260503011241 | 50 | 293 | 0.0 | 0.0 | 0.00 | 0.00 | 0.00 | 61 | 1022.5 |
| 20260503010738 | 51 | 293 | 0.0 | 0.0 | 0.00 | 0.00 | 0.00 | 61 | 1022.5 |
| 20260503010236 | 51 | 293 | 0.0 | 0.0 | 0.00 | 0.00 | 0.00 | 61 | 1022.5 |
| 20260503005735 | 50 | 293 | 0.0 | 0.0 | 0.00 | 0.00 | 0.00 | 61 | 1022.7 |
| 20260503005251 | 50 | 293 | 0.0 | 0.0 | 0.00 | 0.00 | 0.00 | 61 | 1022.7 |
| 20260503004732 | 50 | 293 | 0.0 | 0.0 | 0.00 | 0.00 | 0.00 | 61 | 1022.7 |
| 20260503004251 | 50 | 293 | 0.0 | 0.0 | 0.00 | 0.00 | 0.00 | 62 | 1022.9 |
| 20260503003745 | 50 | 293 | 0.0 | 0.0 | 0.00 | 0.00 | 0.00 | 63 | 1022.9 |
| 20260503003242 | 50 | 293 | 0.0 | 0.0 | 0.00 | 0.00 | 0.00 | 64 | 1022.9 |
| 20260503002742 | 49 | 293 | 0.0 | 0.0 | 0.00 | 0.00 | 0.00 | 64 | 1023.0 |
| 20260503002241 | 49 | 293 | 0.0 | 0.0 | 0.00 | 0.00 | 0.00 | 64 | 1023.0 |
| 20260503001738 | 49 | 293 | 0.0 | 0.0 | 0.00 | 0.00 | 0.00 | 64 | 1023.0 |
| 20260503001237 | 49 | 314 | 0.0 | 0.0 | 0.00 | 0.00 | 0.00 | 64 | 1022.3 |
| 20260503000736 | 49 | 314 | 0.0 | 0.0 | 0.00 | 0.00 | 0.00 | 64 | 1022.3 |
| 20260503000240 | 49 | 314 | 0.0 | 0.0 | 0.00 | 0.00 | 0.00 | 65 | 1022.3 |
| 20260502235734 | 49 | 314 | 0.0 | 0.0 | 0.00 | 0.00 | 0.00 | 63 | 1022.6 |
| 20260502235243 | 49 | 314 | 0.0 | 0.0 | 0.00 | 0.00 | 0.00 | 63 | 1022.6 |
| 20260502234743 | 49 | 314 | 0.0 | 0.0 | 0.00 | 0.00 | 0.00 | 62 | 1022.6 |
| 20260502234237 | 49 | 314 | 0.0 | 0.0 | 0.00 | 0.00 | 0.00 | 61 | 1022.7 |
| 20260502233736 | 49 | 314 | 0.0 | 0.0 | 0.00 | 0.00 | 0.00 | 60 | 1022.7 |
| 20260502233235 | 50 | 314 | 0.0 | 0.0 | 0.00 | 0.00 | 0.00 | 59 | 1022.7 |
| 20260502232731 | 50 | 315 | 0.0 | 0.0 | 0.00 | 0.00 | 0.00 | 59 | 1022.8 |
| 20260502232249 | 50 | 315 | 0.0 | 0.0 | 0.00 | 0.00 | 0.00 | 58 | 1022.8 |
| 20260502231748 | 50 | 318 | 0.0 | 0.0 | 0.00 | 0.00 | 0.00 | 58 | 1022.8 |
| 20260502231235 | 50 | 318 | 0.0 | 0.0 | 0.00 | 0.00 | 0.00 | 58 | 1023.8 |
| 20260502230735 | 50 | 318 | 0.0 | 0.0 | 0.00 | 0.00 | 0.00 | 59 | 1023.8 |
| 20260502230234 | 50 | 318 | 0.0 | 0.0 | 0.00 | 0.00 | 0.00 | 58 | 1023.8 |
| 20260502225731 | 50 | 318 | 0.0 | 0.0 | 0.00 | 0.00 | 0.00 | 58 | 1024.0 |
| 20260502225235 | 50 | 318 | 0.0 | 0.0 | 0.00 | 0.00 | 0.00 | 57 | 1024.0 |
| 20260502224734 | 50 | 318 | 0.0 | 0.0 | 0.00 | 0.00 | 0.00 | 58 | 1024.0 |
| 20260502224251 | 50 | 318 | 0.0 | 0.0 | 0.00 | 0.00 | 0.00 | 58 | 1024.0 |
| 20260502223746 | 50 | 318 | 0.0 | 0.0 | 0.00 | 0.00 | 0.00 | 58 | 1024.0 |
| 20260502223242 | 51 | 318 | 0.0 | 0.0 | 0.00 | 0.00 | 0.00 | 56 | 1024.0 |
| 20260502222742 | 51 | 318 | 0.0 | 0.0 | 0.00 | 0.00 | 0.00 | 56 | 1024.1 |
| 20260502222238 | 50 | 318 | 0.0 | 0.0 | 0.00 | 0.00 | 0.00 | 57 | 1024.1 |
| 20260502221753 | 50 | 318 | 0.0 | 0.0 | 0.00 | 0.00 | 0.00 | 59 | 1024.1 |
| 20260502221249 | 50 | 317 | 0.0 | 0.0 | 0.00 | 0.00 | 0.00 | 61 | 1024.1 |
| 20260502220749 | 50 | 317 | 0.0 | 0.0 | 0.00 | 0.00 | 0.00 | 61 | 1024.1 |
| 20260502220244 | 50 | 317 | 0.0 | 0.0 | 0.00 | 0.00 | 0.00 | 62 | 1024.1 |
| 20260502215744 | 50 | 317 | 0.0 | 0.0 | 0.00 | 0.00 | 0.00 | 61 | 1023.2 |
| 20260502215240 | 49 | 317 | 0.0 | 0.0 | 0.00 | 0.00 | 0.00 | 61 | 1023.2 |
| 20260502214739 | 49 | 317 | 0.0 | 0.0 | 0.00 | 0.00 | 0.00 | 61 | 1023.2 |
| 20260502214235 | 49 | 317 | 0.0 | 0.0 | 0.00 | 0.00 | 0.00 | 61 | 1024.1 |
| 20260502213739 | 50 | 317 | 0.0 | 0.0 | 0.00 | 0.00 | 0.00 | 60 | 1024.1 |
| 20260502213235 | 50 | 317 | 0.0 | 0.0 | 0.00 | 0.00 | 0.00 | 59 | 1024.1 |
| 20260502212731 | 50 | 317 | 0.0 | 0.0 | 0.00 | 0.00 | 0.00 | 58 | 1024.1 |
| 20260502212251 | 50 | 317 | 0.0 | 0.0 | 0.00 | 0.00 | 0.00 | 56 | 1024.1 |
| 20260502211747 | 50 | 317 | 0.0 | 0.0 | 0.00 | 0.00 | 0.00 | 56 | 1024.1 |
| 20260502211243 | 50 | 317 | 0.0 | 0.0 | 0.00 | 0.00 | 0.00 | 57 | 1023.4 |
| 20260502210742 | 51 | 317 | 0.0 | 0.0 | 0.00 | 0.00 | 0.00 | 57 | 1023.4 |
| 20260502210242 | 51 | 317 | 0.0 | 0.0 | 0.00 | 0.00 | 0.00 | 57 | 1023.4 |
| 20260502205737 | 51 | 317 | 0.0 | 0.0 | 0.00 | 0.00 | 0.00 | 57 | 1023.4 |
| 20260502205237 | 50 | 317 | 0.0 | 0.0 | 0.00 | 0.00 | 0.00 | 57 | 1023.4 |
| 20260502204753 | 50 | 317 | 0.0 | 0.0 | 0.00 | 0.00 | 0.00 | 58 | 1023.4 |
| 20260502204249 | 50 | 317 | 0.0 | 0.0 | 0.00 | 0.00 | 0.00 | 60 | 1023.7 |
| 20260502203744 | 50 | 317 | 0.0 | 0.0 | 0.00 | 0.00 | 0.00 | 61 | 1023.7 |
| 20260502203246 | 50 | 317 | 0.0 | 0.0 | 0.00 | 0.00 | 0.00 | 61 | 1023.7 |
| 20260502202746 | 50 | 317 | 0.0 | 0.0 | 0.00 | 0.00 | 0.00 | 62 | 1023.7 |
| 20260502202246 | 50 | 317 | 0.0 | 0.0 | 0.00 | 0.00 | 0.00 | 60 | 1023.7 |
| 20260502201742 | 50 | 317 | 0.0 | 0.0 | 0.00 | 0.00 | 0.00 | 60 | 1023.7 |
| 20260502201244 | 50 | 317 | 0.0 | 0.0 | 0.00 | 0.00 | 0.00 | 60 | 1023.8 |
| 20260502200744 | 51 | 317 | 0.0 | 0.0 | 0.00 | 0.00 | 0.00 | 59 | 1023.8 |
| 20260502200248 | 51 | 317 | 0.0 | 0.0 | 0.00 | 0.00 | 0.00 | 58 | 1023.8 |
| 20260502195744 | 51 | 317 | 0.0 | 0.0 | 0.00 | 0.00 | 0.00 | 58 | 1023.7 |
| 20260502195240 | 51 | 317 | 0.0 | 0.0 | 0.00 | 0.00 | 0.00 | 58 | 1023.7 |
| 20260502194735 | 51 | 317 | 0.0 | 0.0 | 0.00 | 0.00 | 0.00 | 58 | 1023.7 |
| 20260502193739 | 51 | 318 | 0.0 | 0.0 | 0.00 | 0.00 | 0.00 | 59 | 1023.7 |
| 20260502193235 | 51 | 309 | 0.0 | 0.0 | 0.00 | 0.00 | 0.00 | 60 | 1023.7 |
| 20260502192735 | 51 | 308 | 0.0 | 0.0 | 0.00 | 0.00 | 0.00 | 60 | 1023.6 |
| 20260502192250 | 51 | 308 | 0.0 | 0.0 | 0.00 | 0.00 | 0.00 | 60 | 1023.6 |
| 20260502191746 | 51 | 308 | 0.0 | 0.0 | 0.00 | 0.00 | 0.00 | 61 | 1023.6 |
| 20260502191242 | 51 | 308 | 0.0 | 0.0 | 0.00 | 0.00 | 0.00 | 60 | 1023.5 |
| 20260502190742 | 51 | 308 | 0.0 | 0.0 | 0.00 | 0.00 | 0.00 | 61 | 1023.5 |
| 20260502190244 | 52 | 308 | 0.0 | 0.0 | 0.00 | 0.00 | 0.00 | 60 | 1023.5 |
| 20260502185745 | 51 | 308 | 0.0 | 0.0 | 0.00 | 0.00 | 0.00 | 60 | 1023.4 |
| 20260502185245 | 51 | 308 | 0.0 | 0.0 | 0.00 | 0.00 | 0.00 | 60 | 1023.4 |
| 20260502184744 | 51 | 308 | 0.0 | 0.0 | 0.00 | 0.00 | 0.00 | 60 | 1023.4 |
| 20260502184240 | 52 | 308 | 0.0 | 0.0 | 0.00 | 0.00 | 0.00 | 60 | 1023.3 |
| 20260502183736 | 52 | 307 | 0.0 | 0.0 | 0.00 | 0.00 | 0.00 | 59 | 1023.3 |
| 20260502183233 | 52 | 307 | 0.0 | 0.0 | 0.00 | 0.00 | 0.00 | 59 | 1023.3 |
| 20260502182733 | 53 | 307 | 0.0 | 0.0 | 0.00 | 0.00 | 0.00 | 59 | 1023.1 |
| 20260502182252 | 53 | 307 | 0.0 | 0.0 | 0.00 | 0.00 | 0.00 | 58 | 1023.1 |
| 20260502181747 | 53 | 307 | 0.0 | 0.0 | 0.00 | 0.00 | 0.00 | 59 | 1023.1 |
| 20260502181243 | 53 | 307 | 0.0 | 0.0 | 0.00 | 0.00 | 0.00 | 59 | 1023.3 |
| 20260502180739 | 53 | 307 | 0.0 | 0.0 | 0.00 | 0.00 | 0.00 | 57 | 1023.3 |
| 20260502180236 | 54 | 307 | 0.0 | 0.0 | 0.00 | 0.00 | 0.00 | 57 | 1023.3 |
| 20260502170239 | 56 | 94 | 0.0 | 0.0 | 0.00 | 0.00 | 0.00 | 55 | 1023.1 |
| 20260502164236 | 59 | 276 | 0.0 | 0.0 | 0.00 | 0.00 | 0.00 | 52 | 1023.2 |
| 20260502163752 | 59 | 235 | 0.0 | 0.0 | 0.00 | 0.00 | 0.00 | 53 | 1023.2 |
| 20260502163247 | 59 | 238 | 0.0 | 0.0 | 0.00 | 0.00 | 0.00 | 53 | 1023.2 |
| 20260502162742 | 59 | 264 | 0.0 | 0.0 | 0.00 | 0.00 | 0.00 | 52 | 1023.3 |
| 20260502162237 | 59 | 255 | 0.0 | 0.0 | 0.00 | 0.00 | 0.00 | 52 | 1023.3 |
| 20260502161734 | 59 | 241 | 0.0 | 0.0 | 0.00 | 0.00 | 0.00 | 52 | 1023.3 |
| 20260502161234 | 59 | 264 | 0.0 | 0.0 | 0.00 | 0.00 | 0.00 | 55 | 1023.3 |
| 20260502160735 | 59 | 264 | 0.0 | 0.0 | 0.00 | 0.00 | 0.00 | 52 | 1023.3 |
| 20260502160236 | 60 | 255 | 0.0 | 0.0 | 0.00 | 0.00 | 0.00 | 52 | 1023.3 |
| 20260502151735 | 60 | 238 | 0.0 | 0.0 | 0.00 | 0.00 | 0.00 | 52 | 1023.3 |
| 20260502123738 | 57 | 79 | 0.0 | 0.0 | 0.00 | 0.00 | 0.00 | 60 | 1024.4 |
| 20260502123254 | 56 | 127 | 0.0 | 0.0 | 0.00 | 0.00 | 0.00 | 58 | 1024.4 |
| 20260502122742 | 55 | 128 | 0.0 | 0.0 | 0.00 | 0.00 | 0.00 | 61 | 1024.5 |
| 20260502122301 | 55 | 83 | 0.0 | 0.0 | 0.00 | 0.00 | 0.00 | 59 | 1024.5 |
| 20260502121747 | 55 | 153 | 0.0 | 0.0 | 0.00 | 0.00 | 0.00 | 59 | 1024.5 |
| 20260502113758 | 56 | 221 | 0.0 | 0.0 | 0.00 | 0.00 | 0.00 | 59 | 1025.0 |
| 20260502113245 | 55 | 151 | 0.0 | 0.0 | 0.00 | 0.00 | 0.00 | 61 | 1025.0 |
| 20260502112801 | 54 | 96 | 0.0 | 0.0 | 0.00 | 0.00 | 0.00 | 64 | 1025.0 |
| 20260502112245 | 54 | 58 | 0.0 | 0.0 | 0.00 | 0.00 | 0.00 | 59 | 1025.0 |
| 20260502111802 | 55 | 92 | 0.0 | 0.0 | 0.00 | 0.00 | 0.00 | 60 | 1025.0 |
| 20260502111249 | 56 | 118 | 0.0 | 0.0 | 0.00 | 0.00 | 0.00 | 58 | 1025.2 |
| 20260502110805 | 56 | 212 | 0.0 | 0.0 | 0.00 | 0.00 | 0.00 | 60 | 1025.2 |
| 20260502110248 | 57 | 140 | 0.0 | 0.0 | 0.00 | 0.00 | 0.00 | 57 | 1025.2 |
| 20260502105803 | 57 | 256 | 0.0 | 0.0 | 0.00 | 0.00 | 0.00 | 57 | 1025.3 |
| 20260502105246 | 57 | 214 | 0.0 | 0.0 | 0.00 | 0.00 | 0.00 | 58 | 1025.3 |
| 20260502104734 | 58 | 197 | 0.0 | 0.0 | 0.00 | 0.00 | 0.00 | 56 | 1025.3 |
| 20260502104251 | 57 | 223 | 0.0 | 0.0 | 0.00 | 0.00 | 0.00 | 55 | 1025.5 |
| 20260502103740 | 57 | 250 | 0.0 | 0.0 | 0.00 | 0.00 | 0.00 | 54 | 1025.5 |
| 20260502103259 | 57 | 203 | 0.0 | 0.0 | 0.00 | 0.00 | 0.00 | 55 | 1025.5 |
| 20260502102240 | 56 | 240 | 0.0 | 0.0 | 0.00 | 0.00 | 0.00 | 56 | 1025.7 |
| 20260502101757 | 56 | 248 | 0.0 | 0.0 | 0.00 | 0.00 | 0.00 | 55 | 1025.7 |
| 20260502101244 | 55 | 270 | 0.0 | 0.0 | 0.00 | 0.00 | 0.00 | 58 | 1025.6 |
| 20260502100800 | 55 | 240 | 0.0 | 0.0 | 0.00 | 0.00 | 0.00 | 56 | 1025.6 |
| 20260502100244 | 56 | 260 | 0.0 | 0.0 | 0.00 | 0.00 | 0.00 | 57 | 1025.6 |
| 20260502091236 | 54 | 233 | 0.0 | 0.0 | 0.00 | 0.00 | 0.00 | 58 | 1026.2 |
| 20260502090753 | 53 | 245 | 0.0 | 0.0 | 0.00 | 0.00 | 0.00 | 60 | 1026.2 |
| 20260502090241 | 53 | 247 | 0.0 | 0.0 | 0.00 | 0.00 | 0.00 | 59 | 1026.2 |